| time (UTC) | temp C | wind direction | speed KPH | gust KPH | rain 1hr cm | rain 24hr cm | rain mn cm | humidity % | barometer mb |
| 20260901220605 | 23 | 207 | 3.2 | 9.7 | 0.00 | 0.03 | 0.03 | 21 | 1024.5 |
| 20260901220112 | 23 | 234 | 3.2 | 11.3 | 0.00 | 0.03 | 0.03 | 22 | 1024.7 |
| 20260901210606 | 23 | 24 | 3.2 | 12.9 | 0.00 | 0.03 | 0.03 | 28 | 1025.2 |
| 20260901200606 | 23 | 20 | 3.2 | 19.3 | 0.00 | 0.03 | 0.03 | 31 | 1026.3 |
| 20260901200112 | 23 | 21 | 3.2 | 19.3 | 0.00 | 0.03 | 0.03 | 32 | 1026.3 |
| 20260901190606 | 22 | 18 | 3.2 | 14.5 | 0.00 | 0.03 | 0.03 | 40 | 1026.8 |
| 20260901190111 | 21 | 18 | 1.6 | 12.9 | 0.00 | 0.03 | 0.03 | 41 | 1026.8 |
| 20260901180605 | 20 | 15 | 3.2 | 14.5 | 0.00 | 0.18 | 0.03 | 47 | 1027.6 |
| 20260901170605 | 19 | 15 | 1.6 | 9.7 | 0.00 | 0.43 | 0.03 | 52 | 1027.9 |
| 20260901170111 | 20 | 17 | 1.6 | 8.0 | 0.00 | 0.43 | 0.03 | 53 | 1027.8 |
| 20260901160112 | 17 | 15 | 1.6 | 8.0 | 0.00 | 0.48 | 0.03 | 61 | 1028.2 |
| 20260901150606 | 15 | 15 | 1.6 | 9.7 | 0.00 | 0.48 | 0.03 | 69 | 1028.1 |
| 20260901150111 | 15 | 15 | 1.6 | 4.8 | 0.00 | 0.48 | 0.03 | 71 | 1028.2 |
| 20260901140606 | 10 | 127 | 0.0 | 8.0 | 0.00 | 0.48 | 0.03 | 85 | 1028.3 |
| 20260901140111 | 10 | 126 | 0.0 | 9.7 | 0.00 | 0.48 | 0.03 | 85 | 1028.3 |
| 20260901130606 | 8 | 90 | 0.0 | 0.0 | 0.00 | 0.48 | 0.03 | 84 | 1028.2 |
| 20260901130111 | 8 | 90 | 0.0 | 0.0 | 0.00 | 0.48 | 0.03 | 84 | 1028.1 |
| 20260901120605 | 8 | 153 | 0.0 | 0.0 | 0.00 | 0.48 | 0.03 | 84 | 1027.4 |
| 20260901120111 | 8 | 152 | 0.0 | 0.0 | 0.00 | 0.48 | 0.03 | 84 | 1027.5 |
| 20260901110605 | 9 | 150 | 0.0 | 1.6 | 0.03 | 0.48 | 0.03 | 84 | 1027.1 |
| 20260901110111 | 9 | 151 | 0.0 | 3.2 | 0.03 | 0.48 | 0.03 | 84 | 1027.0 |
| 20260901100605 | 9 | 144 | 0.0 | 0.0 | 0.00 | 0.46 | 0.00 | 84 | 1027.0 |
| 20260901100111 | 9 | 144 | 0.0 | 0.0 | 0.00 | 0.46 | 0.00 | 84 | 1027.0 |
| 20260901090605 | 10 | 186 | 0.0 | 0.0 | 0.00 | 0.46 | 0.00 | 84 | 1027.1 |
| 20260901090111 | 10 | 186 | 0.0 | 1.6 | 0.00 | 0.46 | 0.00 | 84 | 1027.1 |
| 20260901080605 | 10 | 160 | 0.0 | 3.2 | 0.00 | 0.46 | 0.00 | 84 | 1027.3 |
| 20260901080111 | 10 | 158 | 0.0 | 1.6 | 0.00 | 0.46 | 0.00 | 83 | 1027.3 |
| 20260901070605 | 10 | 197 | 0.0 | 1.6 | 0.00 | 0.46 | 0.00 | 83 | 1027.5 |
| 20260901070110 | 10 | 198 | 0.0 | 1.6 | 0.00 | 0.46 | 0.00 | 84 | 1027.4 |
| 20260901060111 | 11 | 198 | 0.0 | 1.6 | 0.00 | 0.46 | 0.00 | 83 | 1027.2 |
| 20260901050606 | 11 | 198 | 0.0 | 0.0 | 0.00 | 0.46 | 0.46 | 82 | 1027.1 |
| 20260901050111 | 11 | 198 | 0.0 | 0.0 | 0.00 | 0.46 | 0.46 | 82 | 1027.1 |
| 20260901040606 | 11 | 199 | 0.0 | 0.0 | 0.00 | 0.46 | 0.46 | 81 | 1026.1 |
| 20260901030606 | 12 | 222 | 0.0 | 0.0 | 0.00 | 0.46 | 0.46 | 80 | 1026.1 |
| 20260901030112 | 12 | 222 | 0.0 | 0.0 | 0.00 | 0.46 | 0.46 | 79 | 1026.0 |
| 20260901020607 | 13 | 205 | 0.0 | 4.8 | 0.00 | 0.46 | 0.46 | 76 | 1025.6 |
| 20260901020112 | 13 | 211 | 0.0 | 4.8 | 0.00 | 0.46 | 0.46 | 75 | 1025.6 |
| 20260901010607 | 15 | 210 | 0.0 | 9.7 | 0.00 | 0.46 | 0.46 | 73 | 1025.2 |
| 20260901010112 | 14 | 178 | 1.6 | 9.7 | 0.00 | 0.46 | 0.46 | 73 | 1025.3 |
| 20260901000607 | 15 | 201 | 1.6 | 9.7 | 0.00 | 0.46 | 0.46 | 69 | 1026.0 |
| 20260831230606 | 16 | 168 | 0.0 | 8.0 | 0.00 | 0.46 | 0.46 | 68 | 1025.9 |
| 20260831230112 | 16 | 159 | 0.0 | 8.0 | 0.00 | 0.46 | 0.46 | 69 | 1025.9 |